{"data":{"norad_id":55948,"intl_designator":"2023-037AL","name":"STARLINK-5900","alt_names":[],"object_type":"PAYLOAD","status":"ACTIVE","operator":null,"country":"US","launch_date":"2023-03-17","launch_site_code":"AFWTR","launch_vehicle":null,"mission":null,"orbit_class":"UNKNOWN","rcs_meters":null,"size_class":null,"mass_kg":null,"dimensions":null,"purposes":["comms"],"wikipedia_slug":null,"has_3d_model":false,"image_url":null,"decayed_at":null,"tle_current":{"epoch":"2026-09-20T01:11:43.381824Z","epoch_age_seconds":145074,"freshness":"FRESH","line1":"1 55948U 23037AL  26263.04980766  .00000228  00000+0  26873-4 0  9996","line2":"2 55948  69.9989 134.5222 0002913 269.7824  90.3001 14.98328303193585","mean_motion":14.98328303,"eccentricity":0.0002913,"inclination_deg":69.9989,"raan_deg":134.5222,"arg_perigee_deg":269.7824,"mean_anomaly_deg":90.3001,"bstar":2.6873e-5,"rev_number":19358,"period_min":96.107107976055,"perigee_km":570.03654606406,"apogee_km":574.08573149971,"semimajor_km":6950.1981387819,"source":"CELESTRAK","updated_at":"2026-09-21T09:00:33.345027Z"}}}